NOZ1412 ENGM-LFMT

Flight info

Callsign NOZ1412
Flight time 2h 32m
Altitude 34000
Route VIPPA DCT LUTIR DCT LIMGO DCT SUTAL DCT GTQ DCT POGOL DCT LASAT DCT MOROK DCT GILIR DCT GEVEA DCT INCUS DCT BALSI DCT ETIDO DCT KURIR DCT MTL DCT MOLEN DCT NG
Aircraft B738/M-SDE2E3FGHIRWXY/LB1

Departure

Time 2026-04-17 08:20
Airport Oslo-Gardermoen International Airport (ENGM)

Arrival

Time 2026-04-17 10:53
Airport Montpellier-Méditerranée Airport (LFMT)
Time Latitude Longitude Altitude Speed Heading
2026-04-17 07:34 60.19473 11.10159 684 ft 0 kts 231°
2026-04-17 08:07 60.19476 11.10166 684 ft 3 kts 230°
2026-04-17 08:07 60.19491 11.10201 684 ft 3 kts 231°
2026-04-17 08:08 60.19504 11.10240 684 ft 3 kts 241°
2026-04-17 08:08 60.19516 11.10281 676 ft 3 kts 241°
2026-04-17 08:08 60.19527 11.10323 684 ft 3 kts 241°
2026-04-17 08:08 60.19538 11.10364 676 ft 3 kts 241°
2026-04-17 08:09 60.19544 11.10383 683 ft 0 kts 241°
2026-04-17 08:14 60.19538 11.10384 683 ft 1 kts 174°
2026-04-17 08:14 60.19530 11.10444 682 ft 9 kts 102°
2026-04-17 08:14 60.19508 11.10616 682 ft 16 kts 106°
2026-04-17 08:14 60.19474 11.10842 682 ft 17 kts 106°
2026-04-17 08:15 60.19442 11.11063 682 ft 16 kts 106°
2026-04-17 08:15 60.19428 11.11246 680 ft 10 kts 68°
2026-04-17 08:15 60.19485 11.11318 681 ft 10 kts 18°
2026-04-17 08:15 60.19557 11.11359 680 ft 12 kts 17°
2026-04-17 08:16 60.19635 11.11406 682 ft 12 kts 16°
2026-04-17 08:16 60.19715 11.11453 682 ft 13 kts 16°
2026-04-17 08:16 60.19810 11.11508 679 ft 15 kts 15°
2026-04-17 08:16 60.19913 11.11566 684 ft 15 kts 15°
2026-04-17 08:17 60.20013 11.11623 685 ft 15 kts 15°
2026-04-17 08:17 60.20083 11.11733 681 ft 14 kts 88°
2026-04-17 08:17 60.20063 11.11932 684 ft 13 kts 106°
2026-04-17 08:17 60.20031 11.12096 685 ft 13 kts 122°
2026-04-17 08:18 60.19959 11.12155 687 ft 10 kts 195°
2026-04-17 08:18 60.19932 11.12139 687 ft 0 kts 197°
2026-04-17 08:19 60.19922 11.12133 681 ft 10 kts 196°
2026-04-17 08:19 60.19635 11.11967 683 ft 77 kts 196°
2026-04-17 08:20 60.18917 11.11552 683 ft 136 kts 196°
2026-04-17 08:20 60.17852 11.10931 760 ft 176 kts 196°
2026-04-17 08:20 60.16678 11.10252 1455 ft 177 kts 195°
2026-04-17 08:20 60.15506 11.09592 2309 ft 172 kts 195°
2026-04-17 08:21 60.14325 11.08928 2899 ft 186 kts 195°
2026-04-17 08:21 60.13001 11.08214 3132 ft 208 kts 190°
2026-04-17 08:21 60.11505 11.07820 3440 ft 223 kts 185°
2026-04-17 08:21 60.09927 11.07509 3799 ft 238 kts 185°
2026-04-17 08:22 60.08217 11.07148 4303 ft 252 kts 188°
2026-04-17 08:22 60.06518 11.06236 5173 ft 254 kts 199°
2026-04-17 08:22 60.04859 11.04959 6014 ft 257 kts 201°
2026-04-17 08:22 60.03188 11.03603 6829 ft 261 kts 201°
2026-04-17 08:23 60.01496 11.02237 7618 ft 264 kts 201°
2026-04-17 08:23 59.99777 11.00862 8398 ft 268 kts 201°
2026-04-17 08:23 59.98031 10.99483 9123 ft 273 kts 201°
2026-04-17 08:23 59.96253 10.98093 9888 ft 276 kts 201°
2026-04-17 08:24 59.94447 10.96695 10568 ft 282 kts 201°
2026-04-17 08:24 59.92549 10.95238 10783 ft 304 kts 201°
2026-04-17 08:24 59.90500 10.93671 10968 ft 326 kts 201°
2026-04-17 08:24 59.88313 10.92003 11153 ft 346 kts 201°
2026-04-17 08:25 59.86025 10.90267 11596 ft 356 kts 201°
2026-04-17 08:25 59.83693 10.88502 12239 ft 361 kts 201°
2026-04-17 08:25 59.81335 10.86722 12901 ft 365 kts 201°
2026-04-17 08:25 59.78950 10.84924 13547 ft 369 kts 201°
2026-04-17 08:26 59.76533 10.83105 14157 ft 373 kts 201°
2026-04-17 08:26 59.74087 10.81271 14714 ft 378 kts 201°
2026-04-17 08:26 59.71621 10.79422 15309 ft 381 kts 201°
2026-04-17 08:26 59.69130 10.77557 15892 ft 384 kts 201°
2026-04-17 08:27 59.66619 10.75680 16454 ft 388 kts 201°
2026-04-17 08:27 59.64081 10.73786 17023 ft 392 kts 201°
2026-04-17 08:27 59.61520 10.71879 17592 ft 395 kts 201°
2026-04-17 08:27 59.58934 10.69956 18140 ft 399 kts 201°
2026-04-17 08:28 59.56359 10.68044 18661 ft 403 kts 201°
2026-04-17 08:28 59.53723 10.66090 19134 ft 406 kts 201°
2026-04-17 08:28 59.51069 10.64127 19632 ft 409 kts 201°
2026-04-17 08:28 59.48398 10.62154 20126 ft 411 kts 201°
2026-04-17 08:29 59.45707 10.60170 20588 ft 414 kts 201°
2026-04-17 08:29 59.42997 10.58175 21029 ft 418 kts 201°
2026-04-17 08:29 59.40263 10.56166 21465 ft 421 kts 201°
2026-04-17 08:29 59.37509 10.54147 21925 ft 424 kts 201°
2026-04-17 08:30 59.34736 10.52115 22385 ft 427 kts 201°
2026-04-17 08:30 59.31947 10.50073 22817 ft 429 kts 201°
2026-04-17 08:30 59.29141 10.48024 23082 ft 433 kts 201°
2026-04-17 08:30 59.26311 10.45965 23500 ft 435 kts 201°
2026-04-17 08:31 59.23465 10.43898 23899 ft 438 kts 201°
2026-04-17 08:31 59.20605 10.41823 24261 ft 439 kts 201°
2026-04-17 08:31 59.17733 10.39741 24622 ft 441 kts 202°
2026-04-17 08:31 59.14846 10.37652 24994 ft 443 kts 202°
2026-04-17 08:32 59.11952 10.35561 25359 ft 445 kts 202°
2026-04-17 08:32 59.09039 10.33464 25706 ft 447 kts 202°
2026-04-17 08:32 59.06116 10.31363 26069 ft 449 kts 202°
2026-04-17 08:32 59.03179 10.29255 26385 ft 451 kts 202°
2026-04-17 08:33 59.00233 10.27142 26686 ft 453 kts 202°
2026-04-17 08:33 58.97271 10.25022 26981 ft 455 kts 202°
2026-04-17 08:33 58.94295 10.22905 27278 ft 457 kts 201°
2026-04-17 08:33 58.91261 10.21027 27551 ft 459 kts 198°
2026-04-17 08:34 58.88170 10.19378 27836 ft 462 kts 197°
2026-04-17 08:34 58.85048 10.17826 28131 ft 464 kts 196°
2026-04-17 08:34 58.81914 10.16299 28411 ft 465 kts 196°
2026-04-17 08:34 58.78769 10.14757 28674 ft 467 kts 197°
2026-04-17 08:35 58.75622 10.13191 29012 ft 467 kts 197°
2026-04-17 08:35 58.72485 10.11610 29459 ft 464 kts 197°
2026-04-17 08:35 58.69368 10.10023 29933 ft 461 kts 197°
2026-04-17 08:35 58.66288 10.08451 30494 ft 455 kts 197°
2026-04-17 08:36 58.63233 10.06888 30827 ft 454 kts 198°
2026-04-17 08:36 58.60173 10.05320 31033 ft 456 kts 198°
2026-04-17 08:36 58.57101 10.03748 31251 ft 457 kts 198°
2026-04-17 08:36 58.54034 10.02182 31559 ft 456 kts 198°
2026-04-17 08:37 58.51014 10.00646 31899 ft 454 kts 198°
2026-04-17 08:37 58.47968 9.99099 32191 ft 453 kts 198°
2026-04-17 08:37 58.44917 9.97551 32437 ft 453 kts 198°
2026-04-17 08:37 58.41868 9.96008 32700 ft 453 kts 198°
2026-04-17 08:38 58.38823 9.94473 32992 ft 452 kts 198°
2026-04-17 08:38 58.35787 9.92947 33287 ft 451 kts 198°
2026-04-17 08:38 58.32758 9.91425 33535 ft 451 kts 198°
2026-04-17 08:38 58.29725 9.89903 33780 ft 451 kts 198°
2026-04-17 08:39 58.26698 9.88386 34044 ft 450 kts 198°
2026-04-17 08:39 58.23673 9.86873 34300 ft 450 kts 198°
2026-04-17 08:39 58.20638 9.85358 34293 ft 453 kts 198°
2026-04-17 08:40 58.14543 9.82324 34295 ft 452 kts 198°
2026-04-17 08:40 58.08502 9.79323 34274 ft 447 kts 198°
2026-04-17 08:41 58.02508 9.76365 34291 ft 444 kts 198°
2026-04-17 08:41 57.96542 9.73425 34293 ft 442 kts 198°
2026-04-17 08:42 57.90593 9.70496 34289 ft 442 kts 198°
2026-04-17 08:42 57.84634 9.67578 34299 ft 443 kts 198°
2026-04-17 08:43 57.78695 9.64683 34299 ft 445 kts 198°
2026-04-17 08:43 57.72693 9.61770 34294 ft 447 kts 198°
2026-04-17 08:44 57.66664 9.58845 34290 ft 448 kts 198°
2026-04-17 08:44 57.60613 9.55926 34291 ft 450 kts 198°
2026-04-17 08:45 57.54548 9.53015 34275 ft 450 kts 198°
2026-04-17 08:45 57.49471 9.50582 34282 ft 450 kts 198°
2026-04-17 08:46 57.43416 9.47686 34287 ft 449 kts 198°
2026-04-17 08:46 57.37377 9.44808 34288 ft 447 kts 198°
2026-04-17 08:47 57.31398 9.41968 34292 ft 446 kts 198°
2026-04-17 08:47 57.25393 9.39123 34287 ft 444 kts 198°
2026-04-17 08:48 57.19408 9.36301 34287 ft 443 kts 198°
2026-04-17 08:48 57.13394 9.33476 34290 ft 443 kts 198°
2026-04-17 08:49 57.07468 9.30700 34286 ft 442 kts 198°
2026-04-17 08:49 57.01511 9.27921 34276 ft 442 kts 199°
2026-04-17 08:50 56.95557 9.25150 34288 ft 442 kts 199°
2026-04-17 08:50 56.89597 9.22385 34291 ft 442 kts 199°
2026-04-17 08:51 56.83628 9.19623 34293 ft 442 kts 199°
2026-04-17 08:51 56.77662 9.16872 34290 ft 443 kts 199°
2026-04-17 08:52 56.71680 9.14125 34281 ft 443 kts 199°
2026-04-17 08:52 56.65692 9.11387 34289 ft 444 kts 199°
2026-04-17 08:53 56.59703 9.08651 34290 ft 444 kts 199°
2026-04-17 08:53 56.53709 9.05927 34291 ft 444 kts 199°
2026-04-17 08:54 56.47705 9.03203 34291 ft 445 kts 199°
2026-04-17 08:54 56.41694 9.00488 34291 ft 445 kts 199°
2026-04-17 08:55 56.35687 8.97784 34289 ft 445 kts 199°
2026-04-17 08:55 56.29681 8.95086 34292 ft 445 kts 199°
2026-04-17 08:56 56.23715 8.92418 34282 ft 444 kts 199°
2026-04-17 08:56 56.17725 8.89747 34292 ft 443 kts 199°
2026-04-17 08:57 56.11751 8.87089 34287 ft 442 kts 199°
2026-04-17 08:57 56.05790 8.84446 34288 ft 441 kts 199°
2026-04-17 08:58 55.99834 8.81817 34295 ft 441 kts 199°
2026-04-17 08:58 55.93885 8.79199 34286 ft 440 kts 200°
2026-04-17 08:59 55.87934 8.76587 34294 ft 441 kts 200°
2026-04-17 08:59 55.81974 8.73977 34293 ft 442 kts 200°
2026-04-17 09:00 55.76000 8.71371 34292 ft 442 kts 200°
2026-04-17 09:00 55.70027 8.68774 34296 ft 442 kts 200°
2026-04-17 09:01 55.64046 8.66181 34297 ft 443 kts 200°
2026-04-17 09:01 55.58047 8.63589 34288 ft 444 kts 200°
2026-04-17 09:02 55.52039 8.61002 34294 ft 445 kts 200°
2026-04-17 09:02 55.46025 8.58421 34284 ft 445 kts 200°
2026-04-17 09:03 55.40013 8.55851 34291 ft 444 kts 200°
2026-04-17 09:03 55.34006 8.53286 34288 ft 444 kts 200°
2026-04-17 09:04 55.27998 8.50724 34290 ft 445 kts 200°
2026-04-17 09:04 55.21982 8.48174 34275 ft 445 kts 200°
2026-04-17 09:05 55.15966 8.45633 34275 ft 445 kts 200°
2026-04-17 09:05 55.09951 8.43096 34268 ft 445 kts 200°
2026-04-17 09:06 55.03934 8.40534 34276 ft 445 kts 201°
2026-04-17 09:06 54.97971 8.37885 34269 ft 446 kts 201°
2026-04-17 09:07 54.91961 8.35193 34260 ft 446 kts 201°
2026-04-17 09:07 54.85942 8.32511 34270 ft 447 kts 201°
2026-04-17 09:08 54.79894 8.29837 34279 ft 449 kts 201°
2026-04-17 09:08 54.73833 8.27166 34279 ft 450 kts 201°
2026-04-17 09:09 54.67755 8.24501 34270 ft 451 kts 201°
2026-04-17 09:09 54.61667 8.21838 34273 ft 452 kts 201°
2026-04-17 09:10 54.52514 8.17848 34275 ft 453 kts 201°
2026-04-17 09:10 54.46404 8.15195 34252 ft 453 kts 201°
2026-04-17 09:11 54.40293 8.12553 34266 ft 453 kts 201°
2026-04-17 09:11 54.34182 8.09917 34271 ft 453 kts 201°
2026-04-17 09:12 54.28076 8.07289 34274 ft 452 kts 201°
2026-04-17 09:12 54.21971 8.04669 34252 ft 452 kts 200°
2026-04-17 09:13 54.15865 8.02053 34266 ft 452 kts 200°
2026-04-17 09:13 54.09802 7.99471 34268 ft 452 kts 200°
2026-04-17 09:14 54.03702 7.96881 34273 ft 452 kts 200°
2026-04-17 09:14 53.97601 7.94295 34237 ft 452 kts 200°
2026-04-17 09:15 53.91505 7.91724 34254 ft 451 kts 200°
2026-04-17 09:15 53.85411 7.89150 34251 ft 452 kts 200°
2026-04-17 09:16 53.79314 7.86591 34250 ft 452 kts 200°
2026-04-17 09:16 53.73206 7.84034 34223 ft 452 kts 200°
2026-04-17 09:17 53.67098 7.81485 34229 ft 452 kts 200°
2026-04-17 09:17 53.60986 7.78940 34240 ft 452 kts 200°
2026-04-17 09:18 53.54878 7.76408 34235 ft 452 kts 200°
2026-04-17 09:18 53.48778 7.73888 34223 ft 451 kts 200°
2026-04-17 09:19 53.42695 7.71380 34236 ft 450 kts 199°
2026-04-17 09:19 53.36622 7.68882 34233 ft 449 kts 199°
2026-04-17 09:20 53.30554 7.66391 34241 ft 448 kts 199°
2026-04-17 09:20 53.24496 7.63914 34233 ft 448 kts 199°
2026-04-17 09:21 53.18478 7.61460 34237 ft 448 kts 199°
2026-04-17 09:21 53.12421 7.58999 34228 ft 448 kts 199°
2026-04-17 09:22 53.06361 7.56544 34237 ft 448 kts 199°
2026-04-17 09:22 53.00301 7.54094 34219 ft 448 kts 199°
2026-04-17 09:23 52.94240 7.51650 34233 ft 449 kts 199°
2026-04-17 09:23 52.88170 7.49208 34239 ft 449 kts 199°
2026-04-17 09:24 52.82067 7.46759 34236 ft 454 kts 199°
2026-04-17 09:24 52.75920 7.44307 34216 ft 455 kts 199°
2026-04-17 09:25 52.69778 7.41863 34226 ft 453 kts 199°
2026-04-17 09:25 52.63656 7.39435 34234 ft 452 kts 199°
2026-04-17 09:26 52.57554 7.37018 34236 ft 450 kts 199°
2026-04-17 09:26 52.51456 7.34610 34222 ft 450 kts 199°
2026-04-17 09:27 52.45375 7.32213 34236 ft 450 kts 199°
2026-04-17 09:27 52.39287 7.29820 34223 ft 450 kts 199°
2026-04-17 09:28 52.33200 7.27437 34227 ft 450 kts 199°
2026-04-17 09:28 52.27109 7.25061 34214 ft 450 kts 199°
2026-04-17 09:29 52.21015 7.22689 34228 ft 450 kts 199°
2026-04-17 09:29 52.14911 7.20319 34223 ft 452 kts 199°
2026-04-17 09:30 52.08795 7.17947 34226 ft 452 kts 199°
2026-04-17 09:30 52.02668 7.15583 34219 ft 453 kts 199°
2026-04-17 09:31 51.96532 7.13226 34224 ft 453 kts 199°
2026-04-17 09:31 51.90393 7.10866 34224 ft 453 kts 199°
2026-04-17 09:32 51.84255 7.08516 34226 ft 453 kts 199°
2026-04-17 09:32 51.79150 7.06565 34215 ft 453 kts 198°
2026-04-17 09:33 51.73014 7.04230 34225 ft 453 kts 198°
2026-04-17 09:33 51.66871 7.01896 34232 ft 453 kts 198°
2026-04-17 09:34 51.60729 6.99571 34226 ft 454 kts 198°
2026-04-17 09:34 51.54584 6.97250 34222 ft 454 kts 198°
2026-04-17 09:35 51.48442 6.94938 34225 ft 453 kts 198°
2026-04-17 09:35 51.42297 6.92627 34228 ft 454 kts 198°
2026-04-17 09:36 51.36146 6.90322 34209 ft 454 kts 198°
2026-04-17 09:36 51.29983 6.88022 34240 ft 455 kts 198°
2026-04-17 09:37 51.23855 6.85738 34236 ft 456 kts 198°
2026-04-17 09:37 51.17635 6.83427 34241 ft 456 kts 198°
2026-04-17 09:38 51.11490 6.81151 34222 ft 457 kts 197°
2026-04-17 09:38 51.05305 6.78869 34235 ft 456 kts 197°
2026-04-17 09:39 50.99122 6.76591 34237 ft 456 kts 197°
2026-04-17 09:39 50.92931 6.74316 34240 ft 457 kts 197°
2026-04-17 09:40 50.86740 6.72048 34238 ft 457 kts 197°
2026-04-17 09:40 50.80551 6.69787 34239 ft 457 kts 197°
2026-04-17 09:41 50.74359 6.67530 34241 ft 457 kts 197°
2026-04-17 09:41 50.68168 6.65280 34221 ft 457 kts 197°
2026-04-17 09:42 50.61979 6.63035 34223 ft 456 kts 197°
2026-04-17 09:42 50.55785 6.60793 34217 ft 457 kts 197°
2026-04-17 09:43 50.49590 6.58561 34209 ft 457 kts 197°
2026-04-17 09:43 50.43394 6.56332 34201 ft 457 kts 197°
2026-04-17 09:44 50.37198 6.54113 34221 ft 457 kts 197°
2026-04-17 09:44 50.30994 6.51895 34216 ft 457 kts 197°
2026-04-17 09:45 50.24785 6.49679 34226 ft 459 kts 197°
2026-04-17 09:45 50.18555 6.47459 34215 ft 460 kts 197°
2026-04-17 09:46 50.12318 6.45246 34224 ft 460 kts 196°
2026-04-17 09:46 50.06074 6.43038 34212 ft 460 kts 196°
2026-04-17 09:47 49.99832 6.40839 34205 ft 460 kts 196°
2026-04-17 09:47 49.93583 6.38641 34219 ft 460 kts 196°
2026-04-17 09:48 49.87336 6.36446 34231 ft 460 kts 196°
2026-04-17 09:48 49.81133 6.34275 34231 ft 461 kts 196°
2026-04-17 09:49 49.74884 6.32092 34234 ft 461 kts 196°
2026-04-17 09:49 49.68625 6.29912 34239 ft 461 kts 195°
2026-04-17 09:50 49.65429 6.29267 34225 ft 466 kts 183°
2026-04-17 09:50 49.62191 6.29653 34248 ft 469 kts 172°
2026-04-17 09:50 49.59033 6.30979 34233 ft 473 kts 160°
2026-04-17 09:50 49.56010 6.32982 34240 ft 473 kts 158°
2026-04-17 09:51 49.49990 6.37084 34226 ft 473 kts 159°
2026-04-17 09:51 49.43935 6.41017 34227 ft 473 kts 159°
2026-04-17 09:52 49.37922 6.45100 34220 ft 472 kts 158°
2026-04-17 09:52 49.31924 6.49209 34213 ft 472 kts 158°
2026-04-17 09:53 49.25924 6.53277 34217 ft 471 kts 158°
2026-04-17 09:53 49.19922 6.57318 34222 ft 471 kts 158°
2026-04-17 09:54 49.13923 6.61348 34210 ft 471 kts 158°
2026-04-17 09:54 49.07932 6.65365 34211 ft 470 kts 159°
2026-04-17 09:55 49.01938 6.69354 34215 ft 469 kts 161°
2026-04-17 09:55 48.95656 6.71537 34214 ft 461 kts 179°
2026-04-17 09:56 48.89285 6.71364 34217 ft 458 kts 185°
2026-04-17 09:56 48.82920 6.71012 34218 ft 457 kts 185°
2026-04-17 09:57 48.76557 6.70723 34216 ft 458 kts 185°
2026-04-17 09:57 48.70177 6.70471 34213 ft 459 kts 185°
2026-04-17 09:58 48.63789 6.70226 34211 ft 460 kts 185°
2026-04-17 09:58 48.57393 6.69979 34214 ft 460 kts 184°
2026-04-17 09:59 48.51020 6.69732 34213 ft 461 kts 185°
2026-04-17 09:59 48.44602 6.69482 34199 ft 462 kts 185°
2026-04-17 10:00 48.38175 6.69234 34206 ft 462 kts 185°
2026-04-17 10:00 48.31753 6.68993 34212 ft 462 kts 185°
2026-04-17 10:01 48.25324 6.68750 34215 ft 462 kts 184°
2026-04-17 10:01 48.18909 6.68515 34204 ft 461 kts 184°
2026-04-17 10:02 48.12503 6.68270 34203 ft 460 kts 185°
2026-04-17 10:02 48.06111 6.68032 34200 ft 459 kts 185°
2026-04-17 10:03 47.99731 6.67801 34196 ft 458 kts 185°
2026-04-17 10:03 47.93365 6.67572 34206 ft 457 kts 185°
2026-04-17 10:04 47.87008 6.67333 34202 ft 456 kts 185°
2026-04-17 10:04 47.80666 6.67097 34189 ft 456 kts 185°
2026-04-17 10:05 47.74332 6.66863 34204 ft 455 kts 185°
2026-04-17 10:05 47.68005 6.66629 34214 ft 455 kts 185°
2026-04-17 10:06 47.61675 6.66398 34209 ft 455 kts 185°
2026-04-17 10:06 47.55345 6.66165 34211 ft 454 kts 185°
2026-04-17 10:07 47.49011 6.65937 34218 ft 456 kts 185°
2026-04-17 10:07 47.42679 6.65528 34199 ft 454 kts 193°
2026-04-17 10:08 47.39667 6.64274 34218 ft 448 kts 206°
2026-04-17 10:08 47.36921 6.62164 34208 ft 443 kts 217°
2026-04-17 10:08 47.32230 6.56360 34208 ft 441 kts 224°
2026-04-17 10:09 47.27596 6.50431 34199 ft 442 kts 224°
2026-04-17 10:09 47.22908 6.44546 34203 ft 443 kts 223°
2026-04-17 10:10 47.18198 6.38680 34194 ft 444 kts 223°
2026-04-17 10:11 47.11134 6.29894 34196 ft 443 kts 223°
2026-04-17 10:11 47.06030 6.24924 34204 ft 450 kts 205°
2026-04-17 10:12 46.99915 6.22835 34198 ft 456 kts 188°
2026-04-17 10:12 46.93546 6.22072 34188 ft 456 kts 187°
2026-04-17 10:13 46.87269 6.21333 34200 ft 456 kts 188°
2026-04-17 10:13 46.80952 6.20525 34205 ft 455 kts 188°
2026-04-17 10:14 46.74656 6.19688 34202 ft 454 kts 188°
2026-04-17 10:14 46.68362 6.18848 34206 ft 455 kts 188°
2026-04-17 10:15 46.62056 6.18008 34207 ft 455 kts 188°
2026-04-17 10:15 46.55750 6.17179 34209 ft 455 kts 188°
2026-04-17 10:16 46.49440 6.16352 34214 ft 455 kts 188°
2026-04-17 10:16 46.43120 6.15518 34209 ft 456 kts 188°
2026-04-17 10:17 46.36801 6.14691 34226 ft 456 kts 188°
2026-04-17 10:17 46.30479 6.13864 34248 ft 457 kts 188°
2026-04-17 10:18 46.24158 6.12995 34242 ft 456 kts 190°
2026-04-17 10:18 46.17888 6.11652 34232 ft 456 kts 192°
2026-04-17 10:19 46.11632 6.10184 34242 ft 456 kts 192°
2026-04-17 10:19 46.05355 6.08762 34215 ft 457 kts 192°
2026-04-17 10:20 46.00132 6.07607 34193 ft 458 kts 192°
2026-04-17 10:20 45.93834 6.06227 34200 ft 458 kts 192°
2026-04-17 10:21 45.87532 6.04845 34220 ft 458 kts 192°
2026-04-17 10:21 45.81232 6.03452 34211 ft 458 kts 192°
2026-04-17 10:22 45.74930 6.02065 34203 ft 459 kts 192°
2026-04-17 10:22 45.68615 6.00677 34210 ft 459 kts 192°
2026-04-17 10:23 45.62298 5.99294 34214 ft 459 kts 192°
2026-04-17 10:23 45.55983 5.97902 34215 ft 459 kts 192°
2026-04-17 10:24 45.49728 5.96157 34193 ft 455 kts 204°
2026-04-17 10:24 45.46899 5.94217 34210 ft 450 kts 215°
2026-04-17 10:24 45.44406 5.91582 34197 ft 445 kts 227°
2026-04-17 10:25 45.40090 5.85311 34192 ft 444 kts 229°
2026-04-17 10:25 45.35788 5.79011 34199 ft 444 kts 229°
2026-04-17 10:26 45.31458 5.72768 34182 ft 443 kts 229°
2026-04-17 10:26 45.27138 5.66596 34172 ft 443 kts 228°
2026-04-17 10:27 45.22791 5.60397 34175 ft 443 kts 229°
2026-04-17 10:27 45.18448 5.54219 34188 ft 442 kts 228°
2026-04-17 10:28 45.14108 5.48057 34201 ft 442 kts 228°
2026-04-17 10:28 45.09760 5.41895 34187 ft 442 kts 228°
2026-04-17 10:29 45.05393 5.35741 34175 ft 443 kts 228°
2026-04-17 10:29 45.01019 5.29601 34175 ft 443 kts 228°
2026-04-17 10:30 44.96642 5.23467 34176 ft 443 kts 228°
2026-04-17 10:30 44.92264 5.17350 34190 ft 443 kts 228°
2026-04-17 10:31 44.87880 5.11230 34179 ft 444 kts 227°
2026-04-17 10:31 44.83493 5.05118 34173 ft 444 kts 227°
2026-04-17 10:31 44.81291 5.02051 33872 ft 446 kts 227°
2026-04-17 10:32 44.79092 4.98995 33608 ft 443 kts 227°
2026-04-17 10:32 44.76898 4.95953 33340 ft 443 kts 227°
2026-04-17 10:32 44.74695 4.92904 33078 ft 444 kts 227°
2026-04-17 10:32 44.72339 4.90073 32794 ft 448 kts 219°
2026-04-17 10:33 44.69680 4.87766 32530 ft 451 kts 210°
2026-04-17 10:33 44.66863 4.85816 31870 ft 451 kts 208°
2026-04-17 10:33 44.64054 4.83932 31458 ft 446 kts 208°
2026-04-17 10:33 44.61274 4.82042 30959 ft 442 kts 209°
2026-04-17 10:34 44.58532 4.80137 30487 ft 438 kts 209°
2026-04-17 10:34 44.55816 4.78239 29985 ft 435 kts 208°
2026-04-17 10:34 44.53047 4.76550 29452 ft 432 kts 204°
2026-04-17 10:34 44.50259 4.75036 28954 ft 428 kts 203°
2026-04-17 10:35 44.47469 4.73579 28255 ft 429 kts 202°
2026-04-17 10:35 44.44688 4.72133 27787 ft 424 kts 203°
2026-04-17 10:35 44.41936 4.70690 27291 ft 421 kts 203°
2026-04-17 10:35 44.39211 4.69243 26826 ft 417 kts 203°
2026-04-17 10:36 44.36512 4.67806 26369 ft 413 kts 203°
2026-04-17 10:36 44.33840 4.66381 25907 ft 409 kts 203°
2026-04-17 10:36 44.31188 4.64966 25452 ft 406 kts 203°
2026-04-17 10:36 44.28557 4.63561 25012 ft 403 kts 203°
2026-04-17 10:37 44.25946 4.62167 24553 ft 400 kts 203°
2026-04-17 10:37 44.23384 4.60801 24120 ft 398 kts 203°
2026-04-17 10:37 44.20805 4.59429 23663 ft 396 kts 203°
2026-04-17 10:37 44.18240 4.58063 23141 ft 393 kts 203°
2026-04-17 10:38 44.15696 4.56709 22672 ft 390 kts 203°
2026-04-17 10:38 44.13170 4.55367 22210 ft 387 kts 202°
2026-04-17 10:38 44.10669 4.54041 21777 ft 383 kts 202°
2026-04-17 10:38 44.08204 4.52736 21267 ft 375 kts 202°
2026-04-17 10:39 44.05798 4.51464 20791 ft 366 kts 202°
2026-04-17 10:39 44.03445 4.50200 20321 ft 359 kts 203°
2026-04-17 10:39 44.01141 4.48951 19850 ft 353 kts 203°
2026-04-17 10:39 43.98857 4.47711 19324 ft 352 kts 203°
2026-04-17 10:40 43.96586 4.46479 18814 ft 350 kts 203°
2026-04-17 10:40 43.94317 4.45251 18298 ft 349 kts 203°
2026-04-17 10:40 43.92063 4.44031 17727 ft 347 kts 203°
2026-04-17 10:40 43.89815 4.42818 17143 ft 347 kts 203°
2026-04-17 10:41 43.87564 4.41637 16586 ft 346 kts 199°
2026-04-17 10:41 43.85207 4.40955 16034 ft 347 kts 187°
2026-04-17 10:41 43.82807 4.40922 15493 ft 344 kts 176°
2026-04-17 10:41 43.80440 4.41250 14969 ft 340 kts 174°
2026-04-17 10:42 43.78100 4.41619 14438 ft 337 kts 174°
2026-04-17 10:42 43.75781 4.41989 13933 ft 334 kts 174°
2026-04-17 10:42 43.73480 4.42346 13349 ft 331 kts 174°
2026-04-17 10:42 43.71203 4.42690 12788 ft 328 kts 175°
2026-04-17 10:43 43.68942 4.43023 12230 ft 325 kts 175°
2026-04-17 10:43 43.66703 4.43351 11686 ft 322 kts 175°
2026-04-17 10:43 43.64487 4.43674 11160 ft 319 kts 175°
2026-04-17 10:43 43.62285 4.43993 10605 ft 317 kts 175°
2026-04-17 10:44 43.60097 4.44310 10130 ft 314 kts 175°
2026-04-17 10:44 43.57966 4.44617 9613 ft 310 kts 175°
2026-04-17 10:44 43.55830 4.44924 9096 ft 307 kts 175°
2026-04-17 10:44 43.53721 4.45227 8591 ft 303 kts 175°
2026-04-17 10:45 43.51631 4.45528 8098 ft 301 kts 175°
2026-04-17 10:45 43.49558 4.45827 7644 ft 297 kts 175°
2026-04-17 10:45 43.47544 4.45970 7372 ft 285 kts 190°
2026-04-17 10:45 43.45778 4.44863 7132 ft 274 kts 224°
2026-04-17 10:46 43.44673 4.42835 6872 ft 266 kts 246°
2026-04-17 10:46 43.44147 4.40409 6593 ft 258 kts 264°
2026-04-17 10:46 43.44211 4.37997 6271 ft 250 kts 284°
2026-04-17 10:46 43.44686 4.35737 5973 ft 243 kts 288°
2026-04-17 10:47 43.45179 4.33540 5662 ft 238 kts 288°
2026-04-17 10:47 43.45660 4.31384 5367 ft 233 kts 288°
2026-04-17 10:47 43.46125 4.29289 5096 ft 231 kts 288°
2026-04-17 10:47 43.46590 4.27179 4728 ft 229 kts 288°
2026-04-17 10:48 43.47045 4.25113 4409 ft 222 kts 288°
2026-04-17 10:48 43.47495 4.23077 4021 ft 218 kts 288°
2026-04-17 10:48 43.47925 4.21134 3732 ft 211 kts 288°
2026-04-17 10:48 43.48343 4.19226 3414 ft 205 kts 288°
2026-04-17 10:49 43.48751 4.17381 3126 ft 199 kts 287°
2026-04-17 10:49 43.49147 4.15586 2895 ft 193 kts 287°
2026-04-17 10:49 43.49530 4.13848 2648 ft 184 kts 288°
2026-04-17 10:49 43.50094 4.12339 2449 ft 172 kts 304°
2026-04-17 10:50 43.50772 4.11038 2215 ft 163 kts 304°
2026-04-17 10:50 43.51411 4.09796 1989 ft 155 kts 303°
2026-04-17 10:50 43.52030 4.08576 1822 ft 158 kts 303°
2026-04-17 10:50 43.52670 4.07307 1604 ft 163 kts 303°
2026-04-17 10:51 43.53321 4.06024 1376 ft 163 kts 303°
2026-04-17 10:51 43.53961 4.04758 1143 ft 158 kts 303°
2026-04-17 10:51 43.54587 4.03525 993 ft 156 kts 303°
2026-04-17 10:51 43.55217 4.02279 735 ft 163 kts 303°
2026-04-17 10:52 43.55861 4.01009 544 ft 159 kts 304°
2026-04-17 10:52 43.56516 3.99736 314 ft 163 kts 303°
2026-04-17 10:52 43.57159 3.98472 106 ft 156 kts 301°
2026-04-17 10:52 43.57752 3.97271 16 ft 141 kts 303°
2026-04-17 10:53 43.58177 3.96435 18 ft 50 kts 305°
2026-04-17 10:53 43.58300 3.96187 13 ft 21 kts 303°
2026-04-17 10:53 43.58308 3.96083 13 ft 11 kts 244°
2026-04-17 10:53 43.58283 3.96017 11 ft 0 kts 242°
2026-04-17 10:54 43.58283 3.96016 12 ft 0 kts 242°
2026-04-17 10:54 43.58276 3.95999 11 ft 4 kts 242°
2026-04-17 10:54 43.58259 3.95951 12 ft 7 kts 245°
2026-04-17 10:55 43.58240 3.95895 13 ft 6 kts 244°
2026-04-17 10:55 43.58220 3.95838 14 ft 7 kts 244°
2026-04-17 10:55 43.58198 3.95781 15 ft 7 kts 237°
2026-04-17 10:55 43.58158 3.95760 14 ft 7 kts 169°
2026-04-17 10:56 43.58120 3.95792 16 ft 6 kts 137°
2026-04-17 10:56 43.58090 3.95837 14 ft 6 kts 129°
2026-04-17 10:56 43.58066 3.95887 16 ft 6 kts 119°
2026-04-17 10:56 43.58050 3.95941 16 ft 6 kts 109°
2026-04-17 10:57 43.58037 3.95974 15 ft 2 kts 135°
2026-04-17 10:57 43.58029 3.95978 14 ft 1 kts 165°
2026-04-17 10:57 43.58015 3.95972 14 ft 3 kts 200°
2026-04-17 10:57 43.57996 3.95959 14 ft 2 kts 208°
2026-04-17 10:58 43.57989 3.95954 14 ft 1 kts 207°
2026-04-17 10:58 43.57986 3.95952 14 ft 0 kts 207°